Regional Weather Roundup
Issued by NWS

Home | Current Version | Previous Version | Graphics & Text | Print | Product List | Glossary On
Versions: 1 2 3 4 5 6 7 8 9 10 11 12 13 14 15 16 17 18 19 20 21 22 23 24 25 26 27 28 29 30 31 32 33 34 35 36 37 38 39 40 41 42 43 44 45 46 47 48 49 50
000
ASUS43 KDMX 290708
RWRIA

WEATHER ROUNDUP FOR IOWA
NATIONAL WEATHER SERVICE DES MOINES IA
200 AM CDT FRI APR 29 2016

NOTE: "FAIR" INDICATES FEW OR NO CLOUDS BELOW 12,000 FEET WITH NO
SIGNIFICANT WEATHER AND/OR OBSTRUCTIONS TO VISIBILITY.

* - THESE STATIONS ARE NOT NWS STATIONS...THUS NOT UNDER NWS
QUALITY CONTROL.  THEY ALSO DO NOT REPORT WEATHER SUCH
AS PRECIPITATION OR FOG.

IAZ001>003-012>014-020>022-031>034-043>046-290800-
   NORTHWEST IOWA

CITY           SKY/WX    TMP DP  RH WIND       PRES   REMARKS
CARROLL *      CLOUDY    43  41  93 VRB6      30.11S
CHEROKEE *     CLOUDY    41  41 100 CALM      30.13S FOG
DENISON *      CLOUDY    43  41  93 NE7       30.10F
LE MARS *      CLOUDY    41  39  93 CALM      30.15S
ORANGE CITY *  CLOUDY    39  37  93 CALM      30.13S
SHELDON *      CLOUDY    39  39 100 CALM      30.12R
SIOUX CITY     CLOUDY    43  40  89 N6        30.14F FOG
SPENCER        CLOUDY    40  36  86 NE5       30.13R
STORM LAKE *   CLOUDY    41  39  93 N6        30.12S
$$

IAZ055>058-069>071-079>083-090>094-290800-
   SOUTHWEST IOWA

CITY           SKY/WX    TMP DP  RH WIND       PRES   REMARKS
ATLANTIC *     CLOUDY    45  43  93 NW7       30.11F FOG
AUDUBON *      CLOUDY    43  41  93 N7        30.12R
CLARINDA *       N/A    N/A N/A N/A MISG        N/A
COUNCIL BLFS * CLOUDY    45  43  93 N6        30.12F
CRESTON *      CLOUDY    45  41  87 NW9       30.10S
HARLAN  *      MOCLDY    45  43  93 NW8       30.15S FOG
LAMONI         CLOUDY    47  43  86 NW9       30.08F
RED OAK *      CLOUDY    46  41  81 NW6       30.12S
SHENANDOAH *   CLOUDY    46  45  93 NW8       30.12S
$$

IAZ047>049-059>061-072>074-084-290800-
   CENTRAL IOWA

CITY           SKY/WX    TMP DP  RH WIND       PRES   REMARKS
AMES           CLOUDY    45  44  97 N12       30.08S FOG
ANKENY *       CLOUDY    46  46 100 N9        30.08S
BOONE *        CLOUDY    45  45 100 N9        30.08S FOG
CHARITON *     CLOUDY    48  45  87 NW9       30.07S
DES MOINES     CLOUDY    48  43  82 N9        30.08S
GRINNELL*      CLOUDY    46  45  93 N5        30.07R
KNOXVILLE *    CLOUDY    48  46  93 NW7       30.05F FOG
MARSHALLTOWN   CLOUDY    45  43  93 N8        30.08R
NEWTON *       CLOUDY    46  46 100 N8        30.06S
PELLA *        MOCLDY    48  46  93 NW5       30.08S FOG
$$

IAZ004>006-015-016-023>025-035-036-290800-
   NORTH CENTRAL IOWA

CITY           SKY/WX    TMP DP  RH WIND       PRES   REMARKS
ALGONA *       CLOUDY    41  39  93 N5        30.11S
CLARION *      CLOUDY    41  41 100 NE6       30.10R FOG
ESTHERVILLE    CLOUDY    39  38  96 NE6       30.11S WCI  35
FORT DODGE *   CLOUDY    41  37  87 N3        30.11R
MASON CITY     CLOUDY    41  40  96 N6        30.11S
FOREST CITY *  CLOUDY    39  39 100 NE5       30.10S
WEBSTER CITY * CLOUDY    43  43 100 N9        30.08S FOG
IOWA FALLS *   CLOUDY    45  43  93 NE3       30.10R FOG
$$

IAZ007>011-017>019-026>030-037>042-050>054-066-290800-
   NORTHEAST IOWA

CITY           SKY/WX    TMP DP  RH WIND       PRES   REMARKS
CEDAR RAPIDS   CLOUDY    44  44 100 N9        30.05S FOG
CHARLES CITY * CLOUDY    41  41 100 NE5       30.10R
DECORAH *      CLOUDY    39  39 100 CALM      30.08S
DUBUQUE        CLOUDY    40  39  97 NE5       30.06S
MONTICELLO *   CLOUDY    43  41  93 N5        30.07R
OELWEIN *      CLOUDY    41  41 100 N7        30.09R
WATERLOO       CLOUDY    42  40  92 N6        30.09R FOG
$$

IAZ064-065-067-068-078-290800-
   EAST CENTRAL IOWA

CITY           SKY/WX    TMP DP  RH WIND       PRES   REMARKS
DAVENPORT      CLOUDY    45  43  93 NE14      30.04S FOG
IOWA CITY      CLOUDY    47  45  93 N8        30.07R FOG
MT. PLEASANT * CLOUDY    54  52  94 W3        30.04R
MUSCATINE *    CLOUDY    50  48  93 N7        30.05R FOG
QUAD CITIES    CLOUDY    49  45  86 NE7       30.02S FOG
$$

IAZ062-063-075>077-085>089-095>099-290800-
   SOUTHEAST IOWA

CITY           SKY/WX    TMP DP  RH WIND       PRES   REMARKS
BURLINGTON     PTCLDY    50  47  89 NW6       30.03R
FAIRFIELD *    CLOUDY    50  48  93 N13       30.05R FOG
FORT MADISON * CLEAR     48  46  93 NW7       30.04R
KEOKUK *       CLEAR     50  46  87 NW6       30.04R
OSKALOOSA *    CLOUDY    48  46  93 N6        30.07R FOG
OTTUMWA        CLOUDY    49  47  93 NW10      30.06R
WASHINGTON *   CLOUDY    50  50 100 N12       30.05S FOG
$$

ABBREVIATIONS USED IN REMARKS
   TC - TEMPERATURES IN CELSIUS
  WCI - WIND CHILL INDEX
   HX - HEAT INDEX
  VSB - VISIBILITY
$$





USA.gov is the U.S. government's official web portal to all federal, state and local government web resources and services.